Weather History for Manitowoc, WI

Change the Weather History Date:

Wednesday, May 1, 2013

  Actual Average Record
Temperature  
Mean Temperature 55 °F -  
Max Temperature 66 °F 60 °F 88 °F (1952)
Min Temperature 46 °F 39 °F 26 °F (1963)
Degree Days  
Heating Degree Days 10    
Growing Degree Days 5 (Base 50)    
Moisture  
Dew Point 45 °F    
Average Humidity 65    
Maximum Humidity 82    
Minimum Humidity 51    
Precipitation  
Precipitation 0.00 in - - ()
Sea Level Pressure  
Sea Level Pressure 30.10 in    
Wind  
Wind Speed 7 mph (NNE)    
Max Wind Speed 17 mph    
Max Gust Speed 33 mph    
Visibility 10 miles    
Events      
Averages and records for this station are not official NWS values.
T = Trace of Precipitation, MM = Missing Value Source: NWS Daily Summary

Daily Weather History Graph

Daily Weather History Graph

Search for Another Location

Airport:

Trip Planner

Search our weather history database for the weather conditions in past years. The results will help you decide how hot, cold, wet, or windy it might be!

Date:

Astronomy

May. 01, 2013 Rise Set
Actual Time 5:41 AM CDT 7:54 PM CDT
Civil Twilight 5:09 AM CDT 8:26 PM CDT
Nautical Twilight 4:30 AM CDT 9:06 PM CDT
Astronomical Twilight 3:47 AM CDT 9:49 PM CDT
Moon 1:04 AM CDT (5/1) 11:19 AM CDT (5/1)
Length of Visible Light 15h 16m
Length of Day
14h 12m
Waning Gibbous, 59% of the Moon is Illuminated
May 1
Waning Gibbous
May 2
Last Quarter
May 9
New
May 17
First Quarter
May 24
Full

Hourly Weather History & Observations

Time (CDT) Temp. Windchill Dew Point Humidity Pressure Visibility Wind Dir Wind Speed Gust Speed Precip Events Conditions
12:15 AM 55.4 °F - 48.2 °F 77% 29.88 in 10.0 mi South 6.9 mph - N/A   Clear
12:35 AM 57.2 °F - 48.2 °F 72% 29.90 in 10.0 mi SSE 8.1 mph - N/A   Clear
12:55 AM 57.2 °F - 48.2 °F 72% 29.90 in 10.0 mi East 5.8 mph - N/A   Clear
1:15 AM 50.0 °F - 44.6 °F 82% 29.91 in 10.0 mi ESE 5.8 mph - N/A   Clear
1:35 AM 51.8 °F - 44.6 °F 76% 29.92 in 10.0 mi East 6.9 mph - N/A   Clear
1:55 AM 51.8 °F - 46.4 °F 82% 29.94 in 10.0 mi Calm Calm - N/A   Clear
2:15 AM 51.8 °F - 46.4 °F 82% 29.95 in 10.0 mi Calm Calm - N/A   Clear
2:35 AM 50.0 °F - 44.6 °F 82% 29.95 in 10.0 mi Calm Calm - N/A   Clear
2:55 AM 51.8 °F - 46.4 °F 82% 29.97 in 10.0 mi NNW 3.5 mph - N/A   Clear
3:15 AM 50.0 °F - 44.6 °F 82% 29.98 in 10.0 mi NE 3.5 mph - N/A   Clear
3:35 AM 55.4 °F - 46.4 °F 72% 29.98 in 10.0 mi North 4.6 mph - N/A   Clear
3:55 AM 57.2 °F - 46.4 °F 67% 29.98 in 10.0 mi North 4.6 mph - N/A   Clear
4:15 AM 55.4 °F - 44.6 °F 67% 29.99 in 10.0 mi Calm Calm - N/A   Clear
4:35 AM 55.4 °F - 46.4 °F 72% 30.00 in 10.0 mi NNE 4.6 mph - N/A   Clear
4:55 AM 57.2 °F - 46.4 °F 67% 30.01 in 10.0 mi NNE 4.6 mph - N/A   Clear
5:15 AM 57.2 °F - 48.2 °F 72% 30.01 in 10.0 mi North 3.5 mph - N/A   Clear
5:35 AM 55.4 °F - 48.2 °F 77% 30.01 in 10.0 mi Calm Calm - N/A   Clear
5:55 AM 55.4 °F - 48.2 °F 77% 30.02 in 10.0 mi Calm Calm - N/A   Clear
6:15 AM 55.4 °F - 48.2 °F 77% 30.02 in 10.0 mi NNE 3.5 mph - N/A   Clear
6:35 AM 53.6 °F - 46.4 °F 77% 30.03 in 10.0 mi North 4.6 mph - N/A   Clear
6:55 AM 55.4 °F - 48.2 °F 77% 30.04 in 10.0 mi North 3.5 mph - N/A   Clear
7:15 AM 57.2 °F - 48.2 °F 72% 30.05 in 10.0 mi North 4.6 mph - N/A   Clear
7:35 AM 57.2 °F - 48.2 °F 72% 30.06 in 10.0 mi NNW 6.9 mph - N/A   Clear
8:15 AM 60.8 °F - 50.0 °F 68% 30.07 in 10.0 mi NNE 6.9 mph - N/A   Clear
8:35 AM 60.8 °F - 50.0 °F 68% 30.08 in 10.0 mi NNW 8.1 mph - N/A   Clear
8:55 AM 62.6 °F - 51.8 °F 68% 30.08 in 10.0 mi North 8.1 mph - N/A   Clear
9:15 AM 62.6 °F - 51.8 °F 68% 30.08 in 10.0 mi North 6.9 mph - N/A   Clear
9:35 AM 64.4 °F - 51.8 °F 64% 30.09 in 10.0 mi NE 6.9 mph - N/A   Clear
10:15 AM 64.4 °F - 48.2 °F 56% 30.10 in 10.0 mi NE 9.2 mph - N/A   Clear
10:35 AM 64.4 °F - 48.2 °F 56% 30.11 in 10.0 mi ENE 8.1 mph - N/A   Clear
10:55 AM 64.4 °F - 48.2 °F 56% 30.12 in 10.0 mi NNE 8.1 mph - N/A   Clear
11:15 AM 64.4 °F - 48.2 °F 56% 30.12 in 10.0 mi NE 8.1 mph - N/A   Clear
11:35 AM 64.4 °F - 48.2 °F 56% 30.12 in 10.0 mi NNE 10.4 mph - N/A   Clear
11:55 AM 64.4 °F - 48.2 °F 56% 30.13 in 10.0 mi ENE 11.5 mph - N/A   Clear
12:15 PM 62.6 °F - 48.2 °F 59% 30.13 in 10.0 mi ENE 11.5 mph - N/A   Clear
12:35 PM 64.4 °F - 48.2 °F 56% 30.13 in 10.0 mi NE 11.5 mph - N/A   Clear
12:55 PM 64.4 °F - 48.2 °F 56% 30.13 in 10.0 mi ENE 10.4 mph 16.1 mph N/A   Clear
1:15 PM 64.4 °F - 48.2 °F 56% 30.14 in 10.0 mi NNE 9.2 mph - N/A   Clear
1:35 PM 64.4 °F - 48.2 °F 56% 30.14 in 10.0 mi NNE 10.4 mph - N/A   Clear
2:15 PM 64.4 °F - 48.2 °F 56% 30.15 in 10.0 mi NNE 11.5 mph 16.1 mph N/A   Clear
2:35 PM 64.4 °F - 48.2 °F 56% 30.15 in 10.0 mi NNE 9.2 mph 17.3 mph N/A   Clear
2:55 PM 64.4 °F - 48.2 °F 56% 30.15 in 10.0 mi NE 12.7 mph 16.1 mph N/A   Clear
3:15 PM 64.4 °F - 48.2 °F 56% 30.15 in 10.0 mi NNE 9.2 mph 16.1 mph N/A   Clear
3:35 PM 64.4 °F - 48.2 °F 56% 30.15 in 10.0 mi North 11.5 mph - N/A   Clear
3:55 PM 64.4 °F - 46.4 °F 52% 30.16 in 10.0 mi NNE 10.4 mph - N/A   Clear
4:35 PM 62.6 °F - 46.4 °F 55% 30.17 in 10.0 mi NE 9.2 mph - N/A   Scattered Clouds
4:55 PM 62.6 °F - 46.4 °F 55% 30.17 in 10.0 mi NE 13.8 mph 17.3 mph N/A   Overcast
5:15 PM 62.6 °F - 46.4 °F 55% 30.18 in 10.0 mi North 8.1 mph - N/A   Overcast
5:35 PM 60.8 °F - 46.4 °F 59% 30.18 in 10.0 mi NNE 13.8 mph 21.9 mph N/A   Mostly Cloudy
5:55 PM 57.2 °F - 39.2 °F 51% 30.19 in 10.0 mi NNE 16.1 mph 25.3 mph N/A   Mostly Cloudy
6:15 PM 55.4 °F - 39.2 °F 54% 30.19 in 10.0 mi NNE 13.8 mph 20.7 mph N/A   Scattered Clouds
6:35 PM 53.6 °F - 37.4 °F 54% 30.19 in 10.0 mi NNE 12.7 mph 25.3 mph N/A   Partly Cloudy
6:55 PM 53.6 °F - 37.4 °F 54% 30.20 in 10.0 mi NNE 13.8 mph 24.2 mph N/A   Clear
7:15 PM 53.6 °F - 37.4 °F 54% 30.20 in 10.0 mi North 10.4 mph 18.4 mph N/A   Clear
7:35 PM 51.8 °F - 37.4 °F 58% 30.21 in 10.0 mi NE 10.4 mph 21.9 mph N/A   Clear
7:55 PM 51.8 °F - 35.6 °F 54% 30.21 in 10.0 mi NNE 12.7 mph 23.0 mph N/A   Clear
8:55 PM 48.2 °F - 35.6 °F 62% 30.24 in 10.0 mi NNE 15.0 mph 26.5 mph N/A   Mostly Cloudy
9:35 PM 48.2 °F - 35.6 °F 62% 30.25 in 10.0 mi NNE 11.5 mph 21.9 mph N/A   Scattered Clouds
9:55 PM 46.4 °F 39.8 °F 35.6 °F 66% 30.26 in 10.0 mi North 16.1 mph 33.4 mph N/A   Partly Cloudy
10:15 PM 46.4 °F 40.1 °F 35.6 °F 66% 30.26 in 10.0 mi NNE 15.0 mph 25.3 mph N/A   Clear
10:35 PM 46.4 °F 39.5 °F 35.6 °F 66% 30.27 in 10.0 mi North 17.3 mph 26.5 mph N/A   Mostly Cloudy
10:55 PM 46.4 °F 41.1 °F 33.8 °F 62% 30.28 in 10.0 mi North 11.5 mph 26.5 mph N/A   Overcast
11:15 PM 46.4 °F 41.5 °F 35.6 °F 66% 30.27 in 10.0 mi North 10.4 mph 19.6 mph N/A   Mostly Cloudy
11:35 PM 46.4 °F 41.1 °F 35.6 °F 66% 30.28 in 10.0 mi North 11.5 mph 17.3 mph N/A   Partly Cloudy
11:55 PM 46.4 °F 41.1 °F 33.8 °F 62% 30.28 in 10.0 mi North 11.5 mph 23.0 mph N/A   Partly Cloudy